Regional Weather Roundup
Issued by NWS

Home | Current Version | Previous Version | Text Only | Print | Product List | Glossary On
Versions: 1 2 3 4 5 6 7 8 9 10 11 12 13 14 15 16 17 18 19 20 21 22 23 24 25 26 27 28 29 30 31 32 33 34 35 36 37 38 39 40 41 42 43 44 45 46 47 48 49 50
000
ASHW40 PHFO 180443
RWRHI

WEATHER ROUNDUP FOR HAWAII
NATIONAL WEATHER SERVICE HONOLULU HI
600 PM HST FRI APR 17 2015

THIS IS AN AUTOMATED REPORT THAT HAS NOT BEEN QUALITY CONTROLLED.

NOTE..."FAIR" INDICATES FEW OR NO CLOUDS BELOW 12,000 FEET WITH NO
SIGNIFICANT WEATHER AND/OR OBSTRUCTIONS TO VISIBILITY.

* - THESE SITES REPORT LIMITED FIELDS

HIZ001>004-180500-
KAUAI-NIIHAU-

CITY           SKY/WX    TMP DP  RH WIND       PRES   REMARKS
LIHUE APT      CLOUDY    75  66  73 NE14      30.08R
PORT ALLEN*      N/A     79 N/A N/A E24G30      N/A
POIPU*           N/A     77 N/A N/A NE10G21     N/A
PRINCEVILLE*     N/A     75 N/A N/A MISG        N/A
KOKOLE POINT*  NOT AVBL
MOLOAA DAIRY*  NOT AVBL
WAIMEA HTS*      N/A     79  57  47 E7G16       N/A
PUU OPAE*        N/A     72  61  68 E3          N/A
PUU LUA*       NOT AVBL
MAKAHA RIDGE*    N/A     77  63  61 SW3         N/A
$$

HIZ005>011-180500-
OAHU-

CITY           SKY/WX    TMP DP  RH WIND       PRES   REMARKS
HONOLULU       FAIR      79  63  57 E18       30.03R
KALAELOA       FAIR      79  61  53 E9G18     30.03R
KANEOHE MCB    PTSUNNY   77  67  71 E14G21    30.03R
WHEELER FIELD  FAIR      75  59  57 VRB5      30.10
BELLOWS*         N/A    N/A N/A N/A NE18        N/A
KAHUKU*          N/A    N/A N/A N/A E10G22      N/A
WHEELER*       NOT AVBL
WAIANAE HARBOR NOT AVBL
DILLINGHAM*      N/A     81  63  54 MISG        N/A
KAHUKU TRN*      N/A     73  66  78 E10G18      N/A
KAWAILOA*        N/A     72  64  78 E7G18       N/A
KII*             N/A     77  68  73 E17         N/A
MAKUA RANGE*     N/A    N/A N/A N/A E12G23      N/A
OAHU FOREST NW   N/A    N/A N/A N/A CALM        N/A
SCHOFIELD BRK*   N/A     75  63  64 MISG        N/A
SCHOFIELD S*   NOT AVBL
WAIANAE VLY*     N/A    N/A N/A N/A W6G14       N/A
KUAOKALA*        N/A    N/A N/A N/A NE18G31     N/A
HONOULIUULI*   NOT AVBL
MOKUOLOE IS*     N/A    N/A N/A N/A MISG        N/A
PALEHUA*         N/A     66  57  72 NE9G24      N/A
WAIAWA PHB*    NOT AVBL
$$

HIZ012>013-180500-
MOLOKAI-

CITY           SKY/WX    TMP DP  RH WIND       PRES   REMARKS
MOLOKAI AIRPT  FAIR      76  65  68 NE14G28   30.03R
KALAUPAPA      NOT AVBL
MAKAPULAPAI*     N/A     75  66  73 E22G31      N/A
MOLOKAI 1*       N/A     68  57  68 E5G25       N/A
PUU ALII*        N/A     61  58  91 E3G14       N/A
$$

HIZ016-180500-
KAHOOLAWE-

CITY           SKY/WX    TMP DP  RH WIND       PRES   REMARKS
KAHOOLAWE*       N/A     70 N/A N/A E20G29      N/A
HAKIOAWA*        N/A     73  67  80 MISG      30.45R
HONOKANAIA*      N/A     80  65  59 NE17G30   30.02
KANELOA*         N/A     77  66  69 MISG      29.23R
KEALIALALO*      N/A     73  64  73 E17G36    30.02R
LUA MAKIKA*    NOT AVBL
$$

HIZ014>015-180500-
LANAI-

CITY           SKY/WX    TMP DP  RH WIND       PRES   REMARKS
LANAI CITY     FAIR      72  63  73 NE14      30.07R
LANAI 1*         N/A     70  68  94 NE20G33     N/A
$$

HIZ017>028-180500-
MAUI-

CITY           SKY/WX    TMP DP  RH WIND       PRES   REMARKS
KAHULUI        FAIR      78  65  63 NE23G35   30.01R
KAPALUA-W MAUI PTCLDY    77  64  65 NE15      30.03
HANA AIRPORT   CLOUDY    75  66  73 E6        30.10R
HANA*            N/A     75 N/A N/A E7G14       N/A
HALEAKALA SUMM   N/A     48  -2  12 E12         N/A
MAALAEA BAY*   NOT AVBL
HALEAKALA*     NOT AVBL
KAUPO GAP*       N/A     66  55  68 NE5G12      N/A
KULA 1*        NOT AVBL
$$

HIZ023>026-180500-
BIG ISLAND OF HAWAII COAST AND LOWER SLOPES-

CITY           SKY/WX    TMP DP  RH WIND       PRES   REMARKS
KAILUA KONA    MOCLDY    81  68  64 S10       29.97R
HILO           FAIR      77  64  64 E3        30.05R
HONOKAA*       NOT AVBL
KAWAIHAE MWT*    N/A     82 N/A N/A SW6         N/A
KAWAIHAE*        N/A     79 N/A N/A S3          N/A
SOUTH POINT*     N/A     75 N/A N/A NE21G32     N/A
UPOLU AIRPORT*   N/A    N/A N/A N/A E22G35      N/A
KAMUELA*       CLEAR     64  57  77 NE22      30.10R
HAKALAU*         N/A     56  51  84 SW3         N/A
KALOKO-HONOKO*   N/A     81  68  65 S6        29.97R
PALI 2*          N/A     66  54  63 N21G36      N/A
KEALAKOMO*       N/A     82  63  51 NE18G31     N/A
KAUPULEHU*       N/A     73  54  49 NE10G26     N/A
KAPAPALA*        N/A     75  55  49 E6G16       N/A
LOWER KAHUKU*    N/A     66  59  77 N3G17       N/A
PUHE CS*         N/A     82  72  69 SW3         N/A
PUHO CS*         N/A     79  67  65 SW3         N/A
PTA KEAMUKU*     N/A     64  55  72 CALM        N/A
WAIKOLOA*        N/A     73  55  53 NE9G24      N/A
$$

HIZ027>028-180500-
BIG ISLAND OF HAWAII INTERIOR AND SUMMMITS-

CITY           SKY/WX    TMP DP  RH WIND       PRES   REMARKS
BRADSHAW FIELD FAIR      56  49  78 S10G20    30.30R
MK VISITOR CEN NOT AVBL
MAUNA KEA*       N/A     36 -13  12 E10         N/A  WCI  28
MAUNA LOA*       N/A     43  37  81 MISG        N/A
MAUNA LOA 1*   NOT AVBL
PTA KIPUKA*      N/A     64  55  72 NW5G16      N/A
PTA RANGE 17*    N/A     64  48  55 SE12G20     N/A
PTA WEST*        N/A     75  61  60 NW6G15      N/A
NENE CABIN*      N/A     52  52 100 E5G10       N/A
AHUMOA*          N/A     56  49  77 S5          N/A
PTA PORTABLE*  NOT AVBL
PUU MALI*        N/A     61  45  55 NE6G13      N/A
$$

HIC003-180500-
NORTHWEST ISLANDS-

CITY           SKY/WX    TMP DP  RH WIND       PRES   REMARKS
MIDWAY ISLAND  SUNNY     75  63  64 W9        30.11R
MIDWAY NOS*    NOT AVBL
FRENCH FRIGATE NOT AVBL
$$

PHZ110>124-180-180500-
BUOY REPORTS

STATION/POSITION TIME  TEMP    WIND        PRES    WAVE   SWELL
                       AIR SEA DIR/SP/G            HT/PER HT/DIR
                 (UTC) (F)     (DEG/KT/KT) (MB)    (FT/S) (FT/D)
BUOY 51001       NOT AVBL
BUOY 51101       0400   74 73   80/ 14/ 16 1018.5R   7/11   7/310
BUOY 51100       0400   74 75  100/ 14/ 16 1019.4R
BUOY 51002       0400   78 78   80/ 19/ 27 1013.6R   8/ 7
BUOY 51003       0400   78 79   80/ 17/ 21 1015.3R   7/12   3
BUOY 51004       0322   77 77   60/ 21/ 25 1014.3R  10/ 9   7/ 70
BARBERS PT BUOY  NOT AVBL
WAIMEA BAY BUOY  0400      76                N/A     6/12   3/320
KAILUA BAY BUOY  0400      77                N/A     7/ 7   2/350
LANAI BUOY       0400      78                N/A     3/14   2/200
BARBERS PT 2     0400      78                N/A     5/13   3/290
PAUWELA MAUI     0400      76                N/A     7/13
HILO             0400      78                N/A     8/13
KANEOHE BAY BUOY 0400      76                N/A     6/ 9   2/360
HANALEI KAUAI    0400      76                N/A     7/11
KAHULUI HARBOR   0400   76 77   50/ 17/ 26 1016.3R
HONOLULU HARBOR  0400   79 78   60/  7/ 11 1016.9R
KILO NALU        NOT AVBL
HILO HARBOR      0400   78 76  310/  2/  4 1017.4R
MOKUOLOE         0400      78              1017.4S
NAWILIWILI       0400   76 78   60/ 11/ 14 1017.9R
WHOTS BUOY       NOT AVBL
BUOY 51028       NOT AVBL
$$

......................KEY........................................
  SKY/WX - SKY CONDITIONS/PRESENT WEATHER
  TMP    - TEMPERATURE IN FAHRENHEIT
  DWPT   - DEWPOINT IN FAHRENHEIT
  RH     - RELATIVE HUMIDITY IN PERCENT
  WIND   - DIRECTION AND SPEED /MPH FOR ISLANDS...KTS FOR BUOYS/
  PRES   - MEAN SEA LEVEL PRESSURE IN INCHES OF HG
  VSB    - VISIBILITY IN MILES
  HX     - HEAT INDEX
  WCI    - WIND CHILL INDEX
  VRB    - VARIABLE WIND DIRECTION
  N/A    - NOT AVAILABLE



USA.gov is the U.S. government's official web portal to all federal, state and local government web resources and services.